EW5800 Weather Reports


Display with metric or nautical units.
time (UTC)temp
F
wind
direction
speed
MPH
gust
MPH
rain 1hr
in
rain 24hr
in
rain mn
in
humidity
%
barometer
mb
20260831210023 75 56 0.0 4.0 0.00 0.00 0.00 57 1010.7
20260831204528 75 45 0.0 4.0 0.00 0.00 0.00 56 1010.9
20260831203023 73 309 1.0 7.0 0.00 0.00 0.00 59 1011.1
20260831201518 74 40 1.0 7.0 0.00 0.00 0.00 58 1011.1
20260831200016 75 299 0.0 5.0 0.00 0.00 0.00 54 1011.2
20260831194515 76 118 0.0 3.0 0.00 0.00 0.00 53 1011.4
20260831193018 75 124 0.0 3.0 0.00 0.00 0.00 55 1011.8
20260831191509 75 77 1.0 4.0 0.00 0.00 0.00 55 1012.0
20260831190008 74 56 0.0 2.0 0.00 0.00 0.00 55 1012.1
20260831184504 73 300 0.0 2.0 0.00 0.00 0.00 56 1012.2
20260831183002 71 44 0.0 3.0 0.00 0.00 0.00 59 1012.4
20260831181600 71 96 0.0 3.0 0.00 0.00 0.00 59 1012.7
20260831180057 70 170 0.0 1.0 0.00 0.00 0.00 61 1012.7
20260831174553 68 51 0.0 2.0 0.00 0.00 0.00 63 1012.9
20260831173051 68 23 0.0 2.0 0.00 0.00 0.00 65 1012.9
20260831171545 65 164 0.0 3.0 0.00 0.00 0.00 72 1013.0
20260831170049 63 163 0.0 3.0 0.00 0.00 0.00 73 1013.1
20260831164538 62 49 0.0 2.0 0.00 0.00 0.00 76 1013.1
20260831163044 62 73 0.0 3.0 0.00 0.00 0.00 76 1013.2
20260831161531 60 68 0.0 1.0 0.00 0.00 0.00 83 1013.3
20260831160027 59 162 0.0 1.0 0.00 0.00 0.00 85 1013.6
20260831154523 58 202 0.0 1.0 0.00 0.00 0.00 87 1013.9
20260831153021 57 335 0.0 0.0 0.00 0.00 0.00 89 1013.8
20260831151525 55 335 0.0 0.0 0.00 0.00 0.00 91 1013.9
20260831150021 54 334 0.0 0.0 0.00 0.00 0.00 91 1013.9
20260831144520 54 335 0.0 0.0 0.00 0.00 0.00 91 1013.7
20260831143020 53 335 0.0 0.0 0.00 0.00 0.00 91 1013.9
20260831141518 52 335 0.0 0.0 0.00 0.00 0.00 91 1013.9
20260831140020 52 335 0.0 0.0 0.00 0.00 0.00 91 1013.8
20260831134524 52 335 0.0 0.0 0.00 0.00 0.00 91 1013.8
20260831133018 52 335 0.0 0.0 0.00 0.00 0.00 91 1013.9
20260831131514 52 335 0.0 0.0 0.00 0.00 0.00 91 1014.0
20260831130014 52 335 0.0 0.0 0.00 0.00 0.00 92 1014.1
20260831124510 53 335 0.0 0.0 0.00 0.00 0.00 91 1014.2
20260831123011 53 335 0.0 0.0 0.00 0.00 0.00 91 1014.3
20260831121506 53 335 0.0 0.0 0.00 0.00 0.00 91 1014.2
20260831120006 54 335 0.0 0.0 0.00 0.00 0.00 91 1014.3
20260831114505 54 334 0.0 0.0 0.00 0.00 0.00 91 1014.3
20260831113100 54 334 0.0 0.0 0.00 0.00 0.00 91 1014.5
20260831111606 54 335 0.0 0.0 0.00 0.00 0.00 91 1014.7
20260831110101 54 335 0.0 0.0 0.00 0.00 0.00 91 1014.9
20260831104555 54 335 0.0 0.0 0.00 0.00 0.00 91 1014.9
20260831103055 55 335 0.0 0.0 0.00 0.00 0.00 91 1015.0
20260831101555 55 335 0.0 0.0 0.00 0.00 0.00 91 1015.1
20260831100051 55 335 0.0 0.0 0.00 0.00 0.00 91 1015.1
20260831094549 55 335 0.0 0.0 0.00 0.00 0.00 91 1015.4
20260831093046 55 335 0.0 0.0 0.00 0.00 0.00 91 1015.6
20260831091548 55 335 0.0 0.0 0.00 0.00 0.00 91 1015.6
20260831090044 55 335 0.0 0.0 0.00 0.00 0.00 91 1015.8
20260831084541 55 335 0.0 1.0 0.00 0.00 0.00 91 1015.9
20260831083041 56 334 0.0 0.0 0.00 0.00 0.00 91 1016.1
20260831081538 56 334 0.0 0.0 0.00 0.00 0.00 91 1016.2
20260831080035 56 334 0.0 0.0 0.00 0.00 0.00 90 1016.3
20260831074534 56 334 0.0 0.0 0.00 0.00 0.00 90 1016.3
20260831073032 57 334 0.0 0.0 0.00 0.00 0.00 90 1016.4
20260831071537 57 334 0.0 0.0 0.00 0.00 0.00 89 1016.5
20260831070026 57 334 0.0 0.0 0.00 0.00 0.00 89 1016.6
20260831064531 58 334 0.0 0.0 0.00 0.00 0.00 88 1016.6
20260831063027 58 335 0.0 0.0 0.00 0.00 0.00 88 1016.6
20260831061522 59 335 0.0 0.0 0.00 0.00 0.00 87 1016.7
20260831060021 60 335 0.0 0.0 0.00 0.00 0.00 85 1016.8
20260831054520 60 356 0.0 1.0 0.00 0.00 0.00 84 1016.9
20260831053023 61 350 0.0 1.0 0.00 0.00 0.00 83 1017.0
20260831051528 61 46 0.0 1.0 0.00 0.00 0.00 82 1017.1
20260831050017 61 20 0.0 2.0 0.00 0.00 0.00 82 1017.3
20260831044517 61 2 0.0 1.0 0.00 0.00 0.00 82 1017.3
20260831043016 61 23 0.0 2.0 0.00 0.00 0.00 81 1017.4
20260831041515 62 280 0.0 1.0 0.00 0.00 0.00 80 1017.5
20260831040032 62 345 0.0 1.0 0.00 0.00 0.00 80 1017.5
20260831034516 62 60 0.0 1.0 0.00 0.00 0.00 79 1017.5
20260831033014 62 52 0.0 1.0 0.00 0.00 0.00 79 1017.3
20260831031513 63 21 0.0 1.0 0.00 0.00 0.00 78 1017.3
20260831030012 63 352 0.0 0.0 0.00 0.00 0.00 77 1017.3
20260831024512 63 352 0.0 0.0 0.00 0.00 0.00 76 1017.3
20260831023014 64 352 0.0 2.0 0.00 0.00 0.00 76 1017.3
20260831021511 64 337 0.0 1.0 0.00 0.00 0.00 75 1017.4
20260831020011 64 342 0.0 0.0 0.00 0.00 0.00 75 1017.4
20260831014510 64 340 0.0 1.0 0.00 0.00 0.00 74 1017.4
20260831013010 64 19 0.0 2.0 0.00 0.00 0.00 73 1017.5
20260831011510 65 26 0.0 1.0 0.00 0.00 0.00 73 1017.6
20260831010012 65 320 0.0 2.0 0.00 0.00 0.00 72 1017.7
20260831004509 65 4 0.0 1.0 0.00 0.00 0.00 72 1017.7
20260831003008 65 354 0.0 3.0 0.00 0.00 0.00 73 1017.8
20260831001509 65 56 0.0 4.0 0.00 0.00 0.00 72 1017.8
20260831000007 65 68 0.0 5.0 0.00 0.00 0.00 71 1017.9
20260830234510 65 58 1.0 3.0 0.00 0.00 0.00 71 1018.1
20260830233006 65 360 0.0 4.0 0.00 0.00 0.00 72 1018.3
20260830231506 66 66 0.0 3.0 0.00 0.00 0.00 71 1018.4
20260830230005 66 68 0.0 1.0 0.00 0.00 0.00 70 1018.5
20260830224505 66 58 0.0 2.0 0.00 0.00 0.00 69 1018.6
20260830223005 66 65 0.0 2.0 0.00 0.00 0.00 69 1018.7
20260830221504 66 215 0.0 5.0 0.00 0.00 0.00 69 1018.7
20260830220003 67 215 0.0 4.0 0.00 0.00 0.00 69 1018.8
20260830214608 65 63 0.0 3.0 0.00 0.00 0.00 71 1018.8
20260830213103 64 78 2.0 4.0 0.00 0.00 0.00 72 1019.0
20260830211603 65 129 0.0 2.0 0.00 0.00 0.00 71 1018.9